Location: ??
(34.9170°N, 135.5016°E)
Time: 18:17:57
(UTC+00:00)

S-56A Canister/Altair - Pass Details

Date: 07 March 2021
Orbit: 632 x 2500 km, 38.9° (Epoch: 20 April)

Event Time Altitude Azimuth Distance (km) Brightness Sun altitude
Rises 10:03:54 0° 292° (WNW) 6,182 13.6 -14.2°
Reaches altitude 10° 10:08:11 10° 288° (WNW) 5,147 13.0 -15.0°
Maximum altitude 10:22:02 49° 220° (SW) 2,646 10.4 -17.9°
Drops below altitude 10° 10:32:43 10° 149° (SSE) 4,013 10.8 -20.0°
Enters shadow 10:33:35 - 148° (SSE) 4,230 10.9 -20.2°
